QPF
0.00 0.00 0.00 0.00 0.00 0.00 0.00 0.00 0.00 0.00 0.00 0.00 0.00 0.00 0.00 0.00 0.00 0.00 0.00 0.00 0.00 0.00 0.00 0.02 0.07 0.09 0.16 0.19 0.11 0.05 0.03 0.01 0.00 0.01 0.02 0.02 0.04 0.02 0.01 0.00 0.00 0.00 0.00 0.00
0.00 0.00 0.00 0.00 0.00 0.00 0.00 0.00 0.00 0.00 0.00 0.00 0.00 0.00 0.00 0.00 0.00 0.00 0.00 0.00 0.00 0.00 0.00 0.00 0.05 0.08 0.09 0.11 0.14 0.11 0.04 0.02 0.03 0.10 0.06 0.08 0.07 0.07 0.03 0.00 0.00 0.00 0.00 0.00
0.00 0.00 0.00 0.00 0.00 0.00 0.00 0.00 0.00 0.00 0.00 0.00 0.00 0.00 0.00 0.00 0.00 0.00 0.00 0.00 0.00 0.00 0.00 0.00 0.00 0.04 0.09 0.06 0.06 0.08 0.05 0.02 0.03 0.09 0.09 0.10 0.10 0.11 0.07 0.01 0.00 0.00 0.00 0.00
0.00 0.00 0.00 0.00 0.00 0.00 0.00 0.00 0.00 0.00 0.00 0.01 0.00 0.01 0.00 0.00 0.00 0.00 0.00 0.00 0.00 0.00 0.00 0.00 0.00 0.03 0.08 0.10 0.09 0.14 0.11 0.09 0.08 0.14 0.11 0.14 0.14 0.15 0.14 0.12 0.06 0.02 0.00 0.00
0.00 0.00 0.00 0.00 0.00 0.00 0.00 0.00 0.00 0.00 0.00 0.01 0.01 0.03 0.00 0.00 0.00 0.00 0.00 0.00 0.00 0.00 0.00 0.00 0.00 0.02 0.11 0.11 0.16 0.20 0.25 0.27 0.23 0.20 0.16 0.15 0.12 0.11 0.13 0.15 0.05 0.01 0.00 0.00
0.00 0.00 0.00 0.00 0.00 0.00 0.00 0.00 0.00 0.00 0.00 0.01 0.01 0.00 0.00 0.06 0.03 0.00 0.00 0.00 0.00 0.00 0.02 0.04 0.05 0.07 0.03 0.04 0.08 0.24 0.23 0.25 0.28 0.42 0.47 0.45 0.16 0.12 0.12 0.12 0.13 0.05 0.01 0.00
0.00 0.00 0.00 0.00 0.00 0.00 0.00 0.00 0.00 0.00 0.00 0.03 0.10 0.03 0.00 0.06 0.06 0.01 0.00 0.00 0.00 0.00 0.02 0.09 0.07 0.02 0.05 0.02 0.02 0.10 0.17 0.18 0.20 0.35 0.69 0.48 0.38 0.56 0.24 0.11 0.05 0.04 0.02 0.00
0.00 0.00 0.00 0.00 0.00 0.00 0.00 0.00 0.00 0.00 0.00 0.00 0.06 0.12 0.04 0.04 0.03 0.02 0.03 0.02 0.01 0.01 0.02 0.02 0.11 0.20 0.18 0.05 0.06 0.20 0.27 0.21 0.25 0.44 0.65 0.84 1.02 0.64 0.18 0.07 0.02 0.02 0.01 0.00
0.00 0.00 0.00 0.00 0.00 0.00 0.00 0.00 0.00 0.00 0.00 0.00 0.01 0.01 0.01 0.01 0.00 0.02 0.05 0.04 0.04 0.07 0.09 0.07 0.09 0.14 0.15 0.09 0.25 0.23 0.30 0.40 0.36 0.45 0.88 0.51 0.21 0.13 0.10 0.02 0.00 0.00 0.00 0.00
0.00 0.00 0.00 0.00 0.00 0.00 0.00 0.00 0.00 0.00 0.00 0.00 0.00 0.00 0.00 0.02 0.02 0.05 0.03 0.03 0.04 0.05 0.11 0.16 0.18 0.15 0.14 0.30 0.31 0.29 0.25 0.25 0.28 0.33 0.26 0.12 0.06 0.03 0.01 0.00 0.00 0.00 0.00 0.00
0.00 0.00 0.00 0.00 0.00 0.00 0.00 0.00 0.00 0.00 0.00 0.00 0.00 0.00 0.00 0.00 0.00 0.01 0.03 0.03 0.04 0.04 0.05 0.06 0.06 0.05 0.06 0.05 0.03 0.08 0.12 0.07 0.03 0.00 0.00 0.00 0.00 0.00 0.00 0.00 0.00 0.00 0.00 0.00
0.00 0.00 0.00 0.00 0.00 0.00 0.00 0.00 0.00 0.00 0.00 0.00 0.00 0.00 0.00 0.00 0.00 0.00 0.01 0.02 0.06 0.10 0.04 0.00 0.00 0.00 0.01 0.01 0.03 0.03 0.01 0.00 0.00 0.00 0.00 0.00 0.00 0.00 0.00 0.00 0.00 0.00 0.00 0.00
0.00 0.00 0.00 0.00 0.00 0.00 0.00 0.00 0.00 0.00 0.00 0.00 0.00 0.00 0.00 0.00 0.00 0.00 0.00 0.00 0.01 0.04 0.02 0.00 0.00 0.00 0.00 0.00 0.00 0.00 0.00 0.00 0.00 0.00 0.00 0.00 0.00 0.00 0.00 0.00 0.00 0.00 0.00 0.00
0.00 0.00 0.00 0.00 0.00 0.00 0.00 0.00 0.00 0.00 0.00 0.00 0.00 0.00 0.00 0.00 0.00 0.00 0.00 0.00 0.00 0.00 0.00 0.00 0.00 0.00 0.00 0.00 0.00 0.00 0.00 0.00 0.00 0.00 0.00 0.00 0.00 0.00 0.00 0.00 0.00 0.00 0.00 0.00
0.00 0.00 0.00 0.00 0.00 0.00 0.00 0.00 0.00 0.00 0.00 0.00 0.00 0.00 0.00 0.00 0.00 0.00 0.00 0.00 0.00 0.00 0.00 0.00 0.00 0.00 0.00 0.00 0.00 0.00 0.00 0.00 0.00 0.00 0.00 0.00 0.00 0.00 0.00 0.00 0.00 0.00 0.00 0.00
0.00 0.00 0.00 0.00 0.00 0.00 0.00 0.00 0.00 0.00 0.00 0.00 0.00 0.00 0.00 0.00 0.00 0.00 0.00 0.00 0.00 0.00 0.00 0.00 0.00 0.00 0.00 0.00 0.00 0.00 0.00 0.00 0.00 0.00 0.00 0.00 0.00 0.00 0.00 0.00 0.00 0.00 0.00 0.00
0.00 0.00 0.00 0.00 0.00 0.00 0.00 0.00 0.00 0.00 0.00 0.00 0.00 0.00 0.00 0.00 0.00 0.00 0.00 0.00 0.00 0.00 0.00 0.00 0.00 0.00 0.00 0.00 0.00 0.00 0.00 0.00 0.00 0.00 0.00 0.00 0.00 0.00 0.00 0.00 0.00 0.00 0.00 0.00
0.00 0.00 0.00 0.00 0.00 0.00 0.00 0.00 0.00 0.00 0.00 0.00 0.00 0.00 0.00 0.00 0.00 0.00 0.00 0.00 0.00 0.00 0.00 0.00 0.00 0.00 0.00 0.00 0.00 0.00 0.00 0.00 0.00 0.00 0.00 0.00 0.00 0.00 0.00 0.00 0.00 0.00 0.00 0.00
0.00 0.00 0.00 0.00 0.00 0.00 0.00 0.00 0.00 0.00 0.00 0.00 0.00 0.00 0.00 0.00 0.00 0.00 0.00 0.00 0.00 0.00 0.00 0.00 0.00 0.00 0.00 0.00 0.00 0.00 0.00 0.00 0.00 0.00 0.00 0.00 0.00 0.00 0.00 0.00 0.00 0.00 0.00 0.00
0.00 0.00 0.00 0.00 0.00 0.00 0.00 0.00 0.00 0.00 0.00 0.00 0.00 0.00 0.00 0.00 0.00 0.00 0.00 0.00 0.00 0.00 0.00 0.00 0.00 0.00 0.00 0.00 0.00 0.00 0.00 0.00 0.00 0.00 0.00 0.00 0.00 0.00 0.00 0.00 0.00 0.00 0.00 0.00
0.00 0.00 0.00 0.00 0.00 0.00 0.00 0.00 0.00 0.00 0.00 0.00 0.00 0.00 0.00 0.00 0.00 0.00 0.00 0.00 0.00 0.00 0.00 0.00 0.00 0.00 0.00 0.00 0.00 0.00 0.00 0.00 0.00 0.00 0.00 0.00 0.00 0.00 0.00 0.00 0.00 0.00 0.00 0.00
0.00 0.00 0.00 0.00 0.00 0.00 0.00 0.00 0.00 0.00 0.00 0.00 0.00 0.00 0.00 0.00 0.00 0.00 0.00 0.00 0.00 0.00 0.00 0.00 0.00 0.00 0.00 0.00 0.00 0.00 0.00 0.00 0.00 0.00 0.00 0.00 0.00 0.00 0.00 0.00 0.00 0.00 0.00 0.00
0.00 0.00 0.00 0.00 0.00 0.00 0.00 0.00 0.00 0.00 0.00 0.00 0.00 0.00 0.00 0.00 0.00 0.00 0.00 0.00 0.00 0.00 0.00 0.00 0.00 0.00 0.00 0.00 0.00 0.00 0.00 0.00 0.00 0.00 0.00 0.00 0.00 0.00 0.00 0.00 0.00 0.00 0.00 0.00
0.00 0.00 0.00 0.00 0.00 0.00 0.00 0.00 0.00 0.00 0.00 0.00 0.00 0.00 0.00 0.00 0.00 0.00 0.00 0.00 0.00 0.00 0.00 0.00 0.00 0.00 0.00 0.00 0.00 0.00 0.00 0.00 0.00 0.00 0.00 0.00 0.00 0.00 0.00 0.00 0.00 0.00 0.00 0.00
0.00 0.00 0.00 0.00 0.00 0.00 0.00 0.00 0.00 0.00 0.00 0.00 0.00 0.00 0.00 0.00 0.00 0.00 0.00 0.00 0.00 0.00 0.00 0.00 0.00 0.00 0.00 0.00 0.00 0.00 0.00 0.00 0.00 0.00 0.00 0.00 0.00 0.00 0.00 0.00 0.00 0.00 0.00 0.00
0.00 0.00 0.00 0.00 0.00 0.00 0.00 0.00 0.00 0.00 0.00 0.00 0.00 0.00 0.00 0.00 0.00 0.00 0.00 0.00 0.00 0.00 0.00 0.00 0.00 0.00 0.00 0.00 0.00 0.00 0.00 0.00 0.00 0.00 0.00 0.00 0.00 0.00 0.00 0.00 0.00 0.00 0.00 0.00
MSLP
1013.85 1014.62 1014.63 1014.38 1014.31 1014.22 1014.27 1014.09 1013.59 1012.48 1011.71 1011.49 1011.11 1010.76 1010.47 1009.66 1009.15 1008.92 1008.83 1008.79 1008.40 1008.14 1007.52 1007.57 1007.92 1008.52 1009.37 1010.37 1010.98 1011.53 1012.27 1012.75 1013.23 1013.80 1014.40 1015.02 1015.93 1016.24 1016.61 1016.68 1016.42 1016.57 1017.54 1018.24
1014.52 1014.50 1013.91 1013.82 1013.71 1013.94 1013.91 1013.71 1012.99 1012.09 1011.48 1011.60 1011.10 1010.58 1010.18 1009.74 1009.09 1008.63 1008.57 1008.49 1008.15 1007.72 1007.21 1007.09 1007.88 1008.34 1008.78 1009.49 1010.42 1011.28 1011.84 1012.30 1012.32 1013.26 1014.23 1014.71 1015.51 1016.31 1016.53 1016.65 1016.51 1016.63 1017.19 1017.79
1014.70 1014.11 1013.59 1013.57 1013.51 1013.48 1013.33 1013.25 1012.75 1012.44 1011.63 1011.50 1011.24 1010.74 1009.87 1009.59 1009.04 1008.64 1008.51 1008.34 1008.04 1007.48 1006.74 1006.85 1007.38 1007.87 1008.61 1009.31 1010.04 1010.42 1010.82 1011.78 1012.19 1012.70 1014.02 1014.96 1015.75 1016.64 1017.00 1017.09 1017.17 1017.31 1017.49 1017.49
1014.47 1013.79 1013.65 1013.40 1013.19 1013.04 1012.78 1012.35 1012.54 1012.47 1012.49 1012.30 1012.80 1011.90 1011.14 1009.80 1009.41 1009.51 1009.14 1009.07 1008.02 1007.30 1006.16 1006.53 1006.92 1007.54 1007.97 1009.01 1010.14 1011.21 1012.08 1012.70 1012.52 1012.66 1013.63 1014.31 1014.95 1016.19 1016.67 1017.63 1017.40 1018.19 1018.05 1017.87
1014.56 1014.04 1013.59 1013.25 1012.72 1012.84 1012.67 1012.38 1012.69 1012.95 1013.14 1013.56 1013.63 1013.59 1011.69 1011.01 1010.55 1010.23 1009.58 1009.16 1008.03 1007.07 1006.17 1005.88 1006.46 1006.97 1007.84 1008.58 1009.66 1010.47 1011.64 1012.86 1013.40 1013.33 1013.90 1014.34 1015.29 1015.97 1016.62 1017.48 1018.04 1017.71 1018.23 1017.93
1014.73 1013.98 1013.68 1013.20 1012.63 1012.52 1012.60 1012.72 1013.26 1013.66 1014.27 1014.72 1014.68 1014.59 1012.90 1012.44 1011.87 1010.70 1010.06 1009.36 1007.94 1006.82 1006.50 1006.53 1006.67 1007.38 1007.59 1007.95 1007.90 1009.23 1010.33 1011.35 1013.11 1013.47 1013.82 1013.56 1014.95 1015.83 1016.59 1017.55 1017.50 1018.36 1017.96 1018.43
1015.51 1014.43 1013.70 1013.34 1013.20 1012.67 1013.06 1013.82 1014.92 1015.39 1015.48 1015.59 1015.19 1014.59 1013.60 1012.34 1011.79 1011.18 1010.47 1009.39 1008.43 1007.53 1007.01 1006.97 1007.07 1007.43 1007.86 1008.02 1008.65 1009.38 1010.21 1011.42 1012.27 1013.29 1013.52 1013.47 1015.07 1016.45 1016.30 1016.82 1017.01 1017.76 1018.54 1018.58
1017.19 1015.51 1014.40 1013.67 1013.81 1013.83 1014.29 1015.21 1016.57 1017.47 1017.56 1016.49 1015.23 1014.41 1013.25 1011.99 1011.57 1011.05 1010.61 1010.04 1009.32 1008.58 1008.26 1008.01 1008.11 1008.53 1008.95 1009.21 1009.63 1010.19 1010.89 1011.76 1012.33 1012.64 1013.49 1014.85 1015.30 1015.59 1016.29 1016.86 1016.96 1017.72 1017.94 1018.51
1017.57 1016.35 1014.69 1014.24 1013.84 1014.02 1014.45 1015.84 1016.86 1017.33 1017.56 1017.10 1014.94 1013.45 1012.84 1011.74 1011.60 1011.37 1011.25 1010.89 1010.53 1010.03 1009.70 1009.52 1009.27 1009.35 1009.53 1010.03 1010.61 1011.05 1011.47 1012.03 1012.07 1012.23 1013.80 1014.02 1014.88 1015.84 1016.56 1016.55 1016.97 1017.81 1018.08 1018.61
1017.86 1017.51 1015.44 1014.49 1013.94 1014.31 1014.76 1016.00 1016.71 1017.25 1017.49 1016.85 1015.03 1014.27 1013.45 1012.18 1012.26 1011.97 1012.12 1012.24 1011.96 1011.63 1011.26 1010.95 1010.88 1010.50 1010.67 1011.08 1011.06 1011.37 1012.19 1012.63 1012.82 1013.22 1013.66 1014.52 1015.15 1015.88 1016.08 1016.78 1017.42 1018.05 1018.74 1018.85
1017.72 1018.26 1016.39 1015.51 1014.99 1015.15 1015.44 1015.63 1016.26 1017.09 1017.47 1017.33 1016.48 1014.60 1013.84 1013.69 1013.18 1013.05 1013.17 1013.13 1012.96 1012.75 1012.61 1012.47 1012.50 1012.14 1011.59 1011.75 1011.83 1012.11 1012.63 1013.09 1013.70 1014.06 1014.67 1014.94 1015.42 1015.86 1016.67 1017.54 1018.07 1018.60 1019.24 1019.21
1017.79 1018.34 1018.11 1016.48 1015.29 1015.30 1015.50 1015.55 1015.81 1016.58 1017.36 1016.97 1016.53 1014.89 1014.01 1014.11 1013.76 1013.84 1013.81 1013.95 1013.82 1013.63 1013.26 1013.42 1013.48 1012.95 1012.81 1013.11 1013.06 1013.34 1013.77 1014.12 1014.49 1014.88 1015.28 1015.72 1016.19 1016.94 1017.74 1018.31 1018.91 1019.25 1019.64 1019.71
1017.95 1018.63 1018.64 1016.91 1016.18 1015.57 1015.76 1015.66 1015.84 1015.94 1016.37 1016.63 1016.47 1014.78 1014.12 1014.19 1014.26 1014.38 1014.39 1014.37 1014.27 1014.31 1014.15 1015.08 1014.65 1014.44 1014.28 1014.08 1014.35 1014.68 1015.09 1015.45 1015.67 1015.81 1016.22 1016.86 1017.44 1017.98 1018.55 1019.05 1019.52 1019.96 1020.19 1020.25
1018.27 1019.00 1019.30 1018.90 1017.74 1017.30 1016.62 1015.90 1015.54 1015.69 1016.01 1015.80 1015.73 1015.07 1014.09 1014.42 1014.80 1014.94 1015.09 1015.00 1015.03 1015.45 1015.87 1016.11 1015.83 1015.65 1015.43 1015.56 1015.78 1016.08 1016.45 1016.55 1016.63 1016.81 1017.37 1017.97 1018.58 1019.00 1019.46 1019.83 1020.11 1020.41 1020.58 1020.73
1019.11 1019.56 1019.40 1018.73 1017.74 1017.33 1016.60 1015.84 1015.25 1015.16 1014.98 1015.17 1015.06 1015.04 1014.81 1014.52 1014.76 1015.07 1015.49 1015.60 1015.85 1016.27 1016.51 1016.53 1016.65 1016.70 1016.65 1016.82 1017.01 1017.25 1017.52 1017.72 1017.83 1018.24 1018.68 1019.28 1019.55 1019.83 1019.94 1020.26 1020.75 1021.06 1021.20 1021.48
1019.84 1019.93 1019.76 1018.75 1017.33 1016.87 1016.19 1015.03 1014.68 1014.62 1014.49 1014.58 1014.71 1014.86 1014.83 1014.74 1014.69 1015.06 1015.33 1015.68 1016.11 1016.43 1016.74 1016.99 1017.15 1017.22 1017.46 1017.63 1018.01 1018.23 1018.59 1018.85 1018.87 1019.24 1019.63 1019.93 1020.12 1020.36 1020.67 1021.26 1021.52 1021.66 1021.87 1021.98
1020.41 1020.53 1020.51 1019.40 1017.88 1016.66 1015.74 1014.24 1013.98 1014.02 1014.15 1014.41 1014.55 1014.61 1014.89 1015.19 1015.19 1015.16 1015.43 1015.84 1016.19 1016.64 1016.98 1017.29 1017.65 1017.95 1018.19 1018.45 1018.54 1019.06 1019.28 1019.39 1019.55 1019.87 1020.29 1020.51 1020.68 1021.08 1021.50 1021.68 1021.88 1022.15 1022.31 1022.34
1020.34 1020.82 1020.82 1020.16 1018.48 1017.10 1014.95 1013.87 1013.35 1013.51 1013.73 1013.98 1014.36 1014.60 1014.94 1015.36 1015.58 1015.57 1015.60 1015.85 1016.36 1016.80 1017.32 1017.75 1018.07 1018.48 1018.82 1018.93 1019.23 1019.59 1019.85 1019.99 1020.20 1020.53 1020.83 1021.02 1021.30 1021.70 1021.94 1022.10 1022.30 1022.44 1022.52 1022.57
1020.06 1020.59 1020.96 1020.75 1019.52 1017.13 1014.65 1013.98 1013.62 1013.56 1013.55 1013.50 1014.13 1014.75 1015.24 1015.71 1016.01 1016.04 1015.96 1015.97 1016.26 1016.75 1017.36 1017.95 1018.44 1018.73 1018.99 1019.35 1019.74 1020.01 1020.43 1020.65 1020.85 1021.15 1021.31 1021.49 1021.68 1022.02 1022.24 1022.49 1022.58 1022.62 1022.67 1022.69
1020.19 1020.52 1020.90 1021.03 1019.92 1017.51 1014.76 1013.64 1013.42 1013.58 1013.63 1013.38 1013.79 1014.61 1015.34 1016.06 1016.67 1016.26 1016.06 1016.35 1016.81 1017.20 1017.70 1018.31 1018.90 1019.31 1019.68 1020.16 1020.31 1020.53 1021.09 1021.30 1021.54 1021.61 1021.76 1021.81 1021.93 1022.16 1022.41 1022.55 1022.66 1022.71 1022.74 1022.75
1020.51 1020.86 1020.91 1020.68 1019.54 1016.74 1014.35 1013.61 1013.51 1014.04 1013.99 1013.36 1013.79 1014.37 1015.16 1015.98 1016.08 1016.28 1016.58 1016.93 1017.33 1017.84 1018.40 1018.90 1019.37 1019.95 1020.35 1020.63 1020.84 1021.30 1021.61 1021.87 1021.95 1021.95 1022.03 1022.19 1022.36 1022.55 1022.70 1022.79 1022.86 1022.88 1022.90 1022.92
1019.03 1019.66 1020.12 1020.03 1018.88 1016.28 1013.80 1013.76 1013.69 1013.19 1013.22 1013.35 1013.81 1014.20 1014.90 1015.35 1016.06 1016.47 1017.03 1017.63 1018.01 1018.45 1019.15 1019.66 1020.11 1020.52 1020.79 1021.01 1021.13 1021.82 1022.12 1022.27 1022.27 1022.36 1022.57 1022.80 1022.87 1022.92 1023.02 1023.05 1023.07 1023.07 1023.10 1023.16
1018.17 1017.67 1017.76 1017.62 1015.96 1014.27 1013.48 1012.99 1012.53 1012.64 1012.83 1013.13 1013.62 1014.21 1014.74 1015.52 1016.23 1016.67 1017.36 1018.02 1018.51 1018.91 1019.49 1020.02 1020.45 1021.05 1021.35 1021.45 1021.53 1022.06 1022.47 1022.51 1022.71 1022.92 1023.26 1023.32 1023.34 1023.35 1023.36 1023.40 1023.36 1023.27 1023.16 1023.07
1017.15 1016.65 1016.75 1016.43 1014.33 1013.69 1013.16 1012.76 1012.49 1012.53 1012.65 1012.64 1013.08 1013.79 1014.72 1015.38 1016.10 1016.75 1017.34 1018.13 1018.73 1019.33 1019.83 1020.22 1020.76 1021.38 1021.92 1022.03 1022.14 1022.42 1022.66 1022.83 1023.09 1023.47 1023.69 1023.72 1023.76 1023.75 1023.70 1023.55 1023.43 1023.44 1023.32 1023.13
1016.59 1016.27 1015.74 1014.86 1013.74 1013.25 1012.62 1012.26 1012.08 1012.22 1012.39 1012.63 1013.04 1013.59 1014.35 1015.31 1016.02 1016.54 1017.22 1017.85 1018.41 1019.19 1019.97 1020.39 1020.87 1021.51 1022.13 1022.38 1022.57 1022.80 1022.98 1023.14 1023.56 1023.81 1023.99 1024.06 1024.09 1024.18 1024.12 1023.81 1023.52 1023.25 1022.97 1022.81
1015.27 1014.35 1014.62 1013.35 1012.31 1012.63 1012.14 1011.71 1011.74 1012.10 1012.19 1012.44 1012.91 1013.58 1014.16 1014.90 1015.63 1016.36 1017.09 1017.48 1018.12 1018.89 1019.78 1020.58 1021.18 1021.65 1022.27 1022.66 1022.89 1023.08 1023.18 1023.39 1023.73 1023.98 1024.09 1024.24 1024.34 1024.39 1024.23 1023.98 1023.50 1022.96 1022.63 1022.29
Thickness
5628 5610 5603 5608 5607 5606 5600 5596 5591 5602 5610 5607 5606 5609 5615 5628 5637 5641 5647 5652 5660 5670 5690 5699 5701 5704 5701 5697 5694 5692 5689 5688 5686 5683 5682 5680 5674 5669 5666 5665 5668 5666 5657 5650
5614 5606 5621 5618 5615 5606 5599 5592 5594 5603 5607 5602 5600 5603 5607 5615 5627 5637 5642 5646 5654 5667 5678 5692 5692 5696 5701 5699 5693 5688 5680 5685 5687 5685 5677 5676 5670 5662 5659 5657 5658 5657 5652 5647
5611 5618 5626 5621 5612 5606 5599 5591 5593 5594 5606 5602 5591 5589 5602 5606 5614 5625 5631 5640 5650 5661 5679 5685 5689 5691 5692 5693 5689 5688 5687 5682 5684 5685 5675 5668 5660 5653 5648 5646 5643 5641 5639 5639
5615 5624 5620 5614 5611 5611 5595 5610 5604 5598 5589 5579 5575 5568 5581 5590 5591 5597 5610 5623 5642 5656 5680 5685 5687 5686 5690 5687 5681 5675 5671 5669 5676 5679 5673 5668 5662 5652 5645 5636 5633 5628 5623 5627
5614 5619 5617 5614 5617 5616 5604 5610 5599 5590 5576 5564 5560 5549 5552 5562 5566 5580 5599 5613 5636 5655 5673 5684 5687 5688 5684 5685 5681 5679 5672 5665 5665 5668 5665 5660 5651 5646 5641 5632 5623 5625 5615 5619
5619 5627 5624 5619 5618 5617 5617 5606 5591 5581 5565 5549 5545 5540 5542 5548 5556 5573 5590 5606 5632 5652 5665 5673 5679 5679 5681 5685 5691 5686 5679 5667 5661 5661 5660 5649 5641 5641 5631 5622 5623 5608 5614 5610
5605 5617 5620 5625 5609 5617 5608 5591 5570 5549 5544 5556 5544 5542 5539 5551 5557 5570 5583 5605 5627 5644 5656 5666 5670 5674 5675 5679 5680 5682 5679 5665 5662 5657 5656 5647 5639 5630 5617 5619 5617 5612 5604 5604
5583 5585 5613 5619 5609 5600 5594 5582 5565 5543 5544 5547 5554 5546 5553 5567 5570 5579 5587 5603 5620 5636 5644 5653 5659 5660 5661 5665 5665 5666 5661 5658 5656 5653 5644 5635 5631 5614 5607 5605 5609 5605 5606 5598
5582 5588 5612 5614 5615 5608 5599 5574 5570 5557 5551 5540 5559 5573 5564 5577 5576 5581 5585 5593 5605 5617 5627 5636 5644 5650 5652 5654 5651 5651 5652 5650 5651 5641 5636 5631 5620 5614 5604 5606 5607 5600 5596 5589
5597 5577 5609 5613 5620 5608 5601 5581 5576 5560 5559 5556 5562 5565 5562 5573 5573 5579 5584 5584 5592 5601 5611 5620 5627 5636 5640 5640 5643 5644 5639 5638 5635 5631 5617 5611 5611 5607 5607 5601 5595 5591 5584 5580
5599 5583 5594 5605 5607 5598 5590 5583 5579 5568 5562 5555 5547 5568 5577 5568 5572 5572 5574 5578 5587 5593 5599 5606 5610 5618 5628 5631 5634 5634 5628 5626 5620 5618 5613 5610 5607 5604 5597 5589 5584 5579 5572 5568
5601 5580 5573 5595 5606 5602 5595 5595 5585 5568 5557 5565 5561 5565 5580 5573 5576 5575 5570 5575 5580 5588 5599 5602 5604 5611 5610 5615 5619 5618 5617 5615 5613 5610 5607 5602 5598 5591 5583 5577 5570 5564 5558 5554
5599 5581 5569 5587 5598 5601 5593 5593 5589 5582 5569 5565 5552 5575 5589 5581 5578 5577 5577 5579 5584 5586 5592 5583 5593 5599 5603 5606 5607 5606 5603 5601 5601 5599 5595 5589 5583 5577 5571 5565 5559 5552 5545 5541
5596 5579 5577 5568 5582 5586 5582 5589 5590 5586 5570 5573 5570 5581 5591 5587 5582 5580 5578 5580 5582 5579 5576 5577 5583 5587 5591 5592 5592 5590 5588 5589 5589 5588 5583 5577 5570 5564 5558 5551 5545 5539 5532 5525
5585 5577 5576 5579 5586 5584 5584 5587 5589 5596 5594 5588 5588 5588 5588 5588 5589 5585 5580 5579 5579 5576 5576 5577 5577 5579 5581 5582 5580 5578 5575 5574 5574 5570 5565 5558 5554 5549 5546 5540 5532 5523 5515 5506
5575 5573 5573 5577 5594 5591 5586 5597 5600 5599 5599 5596 5592 5589 5589 5590 5593 5591 5588 5585 5582 5580 5579 5578 5577 5577 5574 5572 5569 5567 5562 5559 5558 5554 5551 5546 5543 5539 5533 5521 5514 5508 5500 5491
5572 5563 5565 5570 5582 5586 5593 5605 5605 5600 5598 5595 5592 5596 5589 5588 5591 5591 5591 5586 5583 5579 5576 5574 5572 5568 5566 5564 5563 5557 5554 5553 5551 5546 5541 5536 5533 5526 5518 5511 5503 5493 5484 5475
5569 5564 5555 5559 5571 5583 5603 5609 5609 5604 5601 5599 5598 5596 5591 5587 5586 5587 5587 5587 5582 5578 5573 5570 5565 5561 5558 5557 5553 5548 5545 5543 5540 5536 5531 5528 5521 5513 5505 5497 5489 5479 5469 5459
5567 5561 5560 5548 5555 5580 5604 5603 5602 5601 5603 5604 5599 5594 5589 5585 5583 5585 5583 5584 5582 5577 5570 5563 5559 5557 5553 5548 5543 5539 5534 5532 5529 5525 5521 5516 5510 5502 5494 5485 5476 5466 5454 5442
5560 5555 5558 5544 5551 5569 5598 5607 5607 5603 5583 5603 5600 5593 5587 5582 5575 5577 5582 5577 5572 5568 5564 5557 5552 5547 5541 5535 5532 5529 5524 5521 5517 5515 5511 5506 5500 5492 5483 5473 5462 5450 5438 5424
5550 5541 5540 5541 5530 5568 5593 5603 5601 5585 5585 5600 5598 5594 5587 5582 5580 5578 5570 5567 5563 5559 5554 5549 5544 5537 5531 5526 5523 5518 5514 5511 5509 5506 5501 5495 5487 5478 5467 5456 5445 5432 5418 5405
5565 5538 5530 5532 5537 5563 5599 5595 5590 5593 5597 5599 5595 5594 5588 5586 5574 5571 5565 5559 5555 5551 5544 5539 5533 5528 5522 5519 5516 5509 5506 5502 5499 5494 5488 5481 5472 5464 5452 5440 5428 5413 5400 5391
5562 5569 5561 5559 5568 5591 5596 5596 5601 5595 5596 5597 5593 5588 5583 5573 5570 5565 5558 5552 5547 5543 5537 5531 5526 5518 5513 5511 5508 5502 5497 5494 5489 5483 5474 5467 5459 5449 5437 5424 5410 5396 5386 5379
5573 5566 5564 5566 5588 5585 5589 5590 5594 5592 5593 5596 5593 5583 5573 5572 5565 5560 5553 5546 5540 5534 5529 5525 5519 5512 5505 5501 5499 5495 5490 5486 5479 5471 5463 5455 5446 5435 5421 5408 5394 5379 5370 5365
5564 5560 5554 5561 5574 5579 5586 5586 5590 5590 5590 5590 5586 5578 5572 5564 5559 5556 5550 5545 5539 5531 5523 5518 5514 5506 5499 5494 5491 5487 5482 5477 5468 5461 5453 5444 5433 5420 5405 5391 5377 5366 5359 5356
5561 5569 5555 5566 5582 5575 5583 5588 5586 5583 5584 5583 5580 5574 5567 5562 5557 5551 5546 5543 5538 5530 5519 5512 5505 5500 5492 5487 5483 5479 5474 5468 5461 5452 5443 5434 5421 5407 5392 5376 5363 5357 5353 5351